Regional Weather Roundup
Issued by NWS

Home | Current Version | Previous Version | Graphics & Text | Print | Product List | Glossary Off
Versions: 1 2 3 4 5 6 7 8 9 10 11 12 13 14 15 16 17 18 19 20 21 22 23 24 25 26 27 28 29 30 31 32 33 34 35 36 37 38 39 40 41 42 43 44 45 46 47 48 49 50

000
ASUS43 KTOP 222059
RWRKS

WEATHER ROUNDUP FOR KANSAS
NATIONAL WEATHER SERVICE GOODLAND KS
400 PM CDT TUE MAY 22 2018

NOTE:  "FAIR" INDICATES FEW OR NO CLOUDS BELOW 12,000 FEET WITH NO
SIGNIFICANT WEATHER AND/OR OBSTRUCTIONS TO VISIBILITY.

KSZ001>006-013>018-027>032-041>047-222200-
NORTHWEST KANSAS

CITY           SKY/WX    TMP DP  RH WIND       PRES   REMARKS
GOODLAND       CLOUDY    80  52  37 S22       29.90F
HAYS           MOSUNNY   89  56  32 S23G30    29.91F
HILL CITY      CLOUDY    87  59  38 S17G26    29.91F
RUSSELL        MOSUNNY   89  61  38 S17G32    29.92S
$$

KSZ061>065-074>080-084>089-222200-
SOUTHWEST KANSAS

CITY           SKY/WX    TMP DP  RH WIND       PRES   REMARKS
DODGE CITY     PTSUNNY   90  53  28 S24G35    29.94F
GARDEN CITY    CLOUDY    87  49  26 S22G32    29.92F
GREAT BEND     MOSUNNY   88  61  40 S21       29.94F
LIBERAL        CLOUDY    83  51  33 SW17G24   29.96F
$$

KSZ066>073-081>083-090>101-222200-
SOUTHEAST KANSAS

CITY           SKY/WX    TMP DP  RH WIND       PRES   REMARKS
CHANUTE        CLOUDY    84  69  60 S9        30.00F
COFFEYVILLE    CLOUDY    85  68  56 CALM      29.98F
HUTCHINSON     SUNNY     88  65  46 S16       29.94F
MEDICINE LODGE   N/A     88  60  38 SE10G20   29.93F
NEWTON         MOSUNNY   85  65  51 S15       29.97F
PARSONS        MOSUNNY   85  68  56 VRB6      30.00F
WICHITA INTL   PTSUNNY   85  66  53 S14       29.96F
WICHITA JABRA  MOSUNNY   84  66  54 S13       29.97F
WINFIELD       MOSUNNY   85  65  51 S14G20    29.98F
$$

KSZ007>012-019>026-033>040-048>060-102>105-222200-
NORTHEAST KANSAS

CITY           SKY/WX    TMP DP  RH WIND       PRES   REMARKS
CONCORDIA      SUNNY     88  62  41 SE15G24   29.94F
EMPORIA        MOSUNNY   84  66  54 SE10      29.98F
LAWRENCE       MOSUNNY   85  65  51 E10       29.99F
MANHATTAN      MOSUNNY   88  64  44 SE13G22   29.95F
OLATHE IND     PTSUNNY   84  64  50 E10       30.02F
OLATHE EXE     MOSUNNY   82  65  56 SE8       30.01F
SALINA         SUNNY     91  62  37 S13       29.93F
TOPEKA BILLARD MOSUNNY   86  69  56 SE9       29.98F
TOPEKA FORBES  MOSUNNY   86  67  52 SE12      29.99F
$$




USA.gov is the U.S. government's official web portal to all federal, state and local government web resources and services.